• In Russia
  • List of Countries
  • For 7 days
  • Water Temperature
  • Satellite Maps
  • Weather Map
  • Weather Widgets
  • user-avatar
    Login

    Hourly Weather Shaki

    Today, 25 February, Saturday

    Time Temperature Precipitation Wind Pressure Humidity
    00:00 +6°C° 0 mm 2 mps 739 mmHg 65%
    01:00 +5°C° 0 mm 2 mps 739 mmHg 67%
    02:00 +5°C° 0 mm 2 mps 739 mmHg 68%
    03:00 +5°C° 0 mm 2 mps 739 mmHg 69%
    04:00 +5°C° 0 mm 2 mps 739 mmHg 68%
    05:00 +5°C° 0 mm 2 mps 739 mmHg 67%
    06:00 +5°C° 0 mm 2 mps 739 mmHg 66%
    07:00 +7°C° 0 mm 2 mps 739 mmHg 61%
    08:00 +9°C° 0 mm 3 mps 739 mmHg 56%
    09:00 +11°C° 0 mm 3 mps 739 mmHg 52%
    10:00 +12°C° 0 mm 3 mps 738 mmHg 48%
    11:00 +14°C° 0 mm 3 mps 738 mmHg 45%
    12:00 +15°C° 0 mm 4 mps 737 mmHg 41%
    13:00 +16°C° 0 mm 3 mps 737 mmHg 41%
    14:00 +16°C° 0 mm 3 mps 736 mmHg 41%
    15:00 +17°C° 0 mm 3 mps 736 mmHg 40%
    16:00 +13°C° 0 mm 3 mps 736 mmHg 43%
    17:00 +11°C° 0 mm 3 mps 736 mmHg 46%
    18:00 +9°C° 0 mm 2 mps 736 mmHg 49%
    19:00 +9°C° 0 mm 2 mps 736 mmHg 47%
    20:00 +8°C° 0 mm 2 mps 736 mmHg 46%
    21:00 +8°C° 0 mm 2 mps 736 mmHg 44%
    22:00 +8°C° 0 mm 3 mps 736 mmHg 44%
    23:00 +7°C° 0 mm 3 mps 735 mmHg 44%

    Tomorrow, 26 February, Sunday

    Time Temperature Precipitation Wind Pressure Humidity
    00:00 +7°C° 0 mm 3 mps 735 mmHg 44%
    01:00 +7°C° 0 mm 3 mps 734 mmHg 44%
    02:00 +7°C° 0 mm 3 mps 734 mmHg 44%
    03:00 +5°C° 0 mm 3 mps 734 mmHg 44%
    04:00 +5°C° 0 mm 4 mps 734 mmHg 44%
    05:00 +5°C° 0 mm 4 mps 734 mmHg 45%
    06:00 +5°C° 0 mm 4 mps 734 mmHg 45%
    07:00 +7°C° 0 mm 4 mps 734 mmHg 45%
    08:00 +9°C° 0 mm 5 mps 734 mmHg 44%
    09:00 +12°C° 0 mm 5 mps 734 mmHg 43%
    10:00 +13°C° 0 mm 6 mps 734 mmHg 42%
    11:00 +14°C° 0 mm 6 mps 735 mmHg 40%
    12:00 +15°C° 0 mm 7 mps 735 mmHg 39%
    13:00 +15°C° 0 mm 7 mps 735 mmHg 40%
    14:00 +15°C° 0 mm 7 mps 735 mmHg 42%
    15:00 +15°C° 0 mm 7 mps 735 mmHg 43%
    16:00 +13°C° 0 mm 5 mps 736 mmHg 47%
    17:00 +11°C° 0 mm 4 mps 737 mmHg 51%
    18:00 +9°C° 0 mm 3 mps 738 mmHg 55%
    19:00 +8°C° 0 mm 3 mps 738 mmHg 55%
    20:00 +8°C° 0 mm 2 mps 739 mmHg 56%
    21:00 +7°C° 0 mm 2 mps 740 mmHg 56%
    22:00 +5°C° 0 mm 3 mps 741 mmHg 62%
    23:00 +5°C° 0 mm 3 mps 741 mmHg 68%

    Day after tomorrow, 27 February, Monday

    Time Temperature Precipitation Wind Pressure Humidity
    00:00 +4°C° 0 mm 4 mps 742 mmHg 74%
    01:00 +4°C° 0 mm 4 mps 742 mmHg 75%
    02:00 +3°C° 0 mm 3 mps 742 mmHg 76%
    03:00 +3°C° 0 mm 3 mps 742 mmHg 77%
    04:00 +2°C° 0 mm 3 mps 742 mmHg 77%
    05:00 +2°C° 0 mm 3 mps 742 mmHg 77%
    06:00 +3°C° 0 mm 2 mps 742 mmHg 77%
    07:00 +3°C° 0 mm 2 mps 742 mmHg 73%
    08:00 +4°C° 0 mm 2 mps 743 mmHg 68%
    09:00 +5°C° 0 mm 2 mps 743 mmHg 63%
    10:00 +6°C° 0 mm 2 mps 742 mmHg 60%
    11:00 +7°C° 0 mm 2 mps 741 mmHg 57%
    12:00 +8°C° 0 mm 2 mps 741 mmHg 54%
    13:00 +8°C° 0 mm 2 mps 740 mmHg 54%
    14:00 +9°C° 0 mm 2 mps 739 mmHg 53%
    15:00 +9°C° 0 mm 2 mps 738 mmHg 53%
    16:00 +9°C° 0 mm 1 mps 738 mmHg 59%
    17:00 +7°C° 0 mm 1 mps 738 mmHg 65%
    18:00 +6°C° 0 mm 1 mps 738 mmHg 70%
    19:00 +5°C° 0 mm 1 mps 738 mmHg 70%
    20:00 +5°C° 0 mm 1 mps 738 mmHg 70%
    21:00 +5°C° 0 mm 1 mps 738 mmHg 70%
    22:00 +5°C° 0 mm 1 mps 738 mmHg 69%
    23:00 +4°C° 0 mm 1 mps 738 mmHg 67%

    28 February, Tuesday

    Time Temperature Precipitation Wind Pressure Humidity
    00:00 +4°C° 0 mm 1 mps 738 mmHg 66%
    01:00 +4°C° 0 mm 1 mps 738 mmHg 65%
    02:00 +4°C° 0 mm 1 mps 738 mmHg 63%
    03:00 +3°C° 0 mm 2 mps 738 mmHg 61%
    04:00 +3°C° 0 mm 2 mps 738 mmHg 60%
    05:00 +3°C° 0 mm 2 mps 738 mmHg 60%
    06:00 +3°C° 0 mm 2 mps 738 mmHg 59%
    07:00 +6°C° 0 mm 1 mps 739 mmHg 55%
    08:00 +8°C° 0 mm 1 mps 739 mmHg 51%
    09:00 +10°C° 0 mm 1 mps 740 mmHg 47%
    10:00 +12°C° 0 mm 1 mps 740 mmHg 45%
    11:00 +13°C° 0 mm 1 mps 739 mmHg 44%
    12:00 +14°C° 0 mm 1 mps 739 mmHg 42%
    13:00 +14°C° 0 mm 1 mps 739 mmHg 43%
    14:00 +15°C° 0 mm 1 mps 739 mmHg 44%
    15:00 +15°C° 0 mm 1 mps 739 mmHg 44%
    16:00 +13°C° 0 mm 1 mps 739 mmHg 52%
    17:00 +11°C° 0 mm 1 mps 739 mmHg 60%
    18:00 +8°C° 0 mm 1 mps 739 mmHg 68%
    19:00 +8°C° 0 mm 1 mps 740 mmHg 69%
    20:00 +8°C° 0 mm 1 mps 740 mmHg 71%
    21:00 +6°C° 0 mm 2 mps 740 mmHg 72%
    22:00 +7°C° 0 mm 1 mps 740 mmHg 73%
    23:00 +6°C° 0 mm 1 mps 740 mmHg 74%

    1 March, Wednesday

    Time Temperature Precipitation Wind Pressure Humidity
    00:00 +6°C° 0 mm 1 mps 740 mmHg 76%
    01:00 +5°C° 0 mm 1 mps 740 mmHg 77%
    02:00 +5°C° 0 mm 1 mps 740 mmHg 77%
    03:00 +5°C° 0 mm 1 mps 740 mmHg 78%
    04:00 +5°C° 0 mm 1 mps 740 mmHg 78%
    05:00 +4°C° 0 mm 1 mps 740 mmHg 78%
    06:00 +4°C° 0 mm 1 mps 740 mmHg 78%
    07:00 +6°C° 0 mm 1 mps 740 mmHg 68%
    08:00 +9°C° 0 mm 1 mps 740 mmHg 59%
    09:00 +10°C° 0 mm 0 mps 740 mmHg 50%
    10:00 +13°C° 0 mm 1 mps 740 mmHg 46%
    11:00 +14°C° 0 mm 1 mps 739 mmHg 42%
    12:00 +15°C° 0 mm 1 mps 739 mmHg 38%
    13:00 +15°C° 0 mm 1 mps 738 mmHg 38%
    14:00 +15°C° 0 mm 1 mps 738 mmHg 37%
    15:00 +16°C° 0 mm 1 mps 737 mmHg 37%
    16:00 +14°C° 0 mm 1 mps 737 mmHg 44%
    17:00 +11°C° 0 mm 1 mps 737 mmHg 50%
    18:00 +9°C° 0 mm 1 mps 737 mmHg 57%
    19:00 +9°C° 0 mm 1 mps 737 mmHg 56%
    20:00 +8°C° 0 mm 1 mps 737 mmHg 55%
    21:00 +7°C° 0 mm 2 mps 737 mmHg 54%
    22:00 +8°C° 0 mm 1 mps 737 mmHg 56%
    23:00 +7°C° 0 mm 1 mps 737 mmHg 58%

    2 March, Thursday

    Time Temperature Precipitation Wind Pressure Humidity
    00:00 +7°C° 0 mm 1 mps 736 mmHg 59%
    01:00 +6°C° 0 mm 1 mps 736 mmHg 63%
    02:00 +6°C° 0 mm 1 mps 736 mmHg 67%
    03:00 +6°C° 0 mm 1 mps 735 mmHg 70%
    04:00 +5°C° 0 mm 1 mps 735 mmHg 73%
    05:00 +5°C° 0 mm 1 mps 735 mmHg 76%
    06:00 +5°C° 0 mm 1 mps 735 mmHg 78%
    07:00 +7°C° 0 mm 1 mps 734 mmHg 70%
    08:00 +8°C° 0 mm 0 mps 734 mmHg 62%
    09:00 +11°C° 0 mm 0 mps 734 mmHg 54%
    10:00 +13°C° 0 mm 1 mps 733 mmHg 50%
    11:00 +14°C° 0 mm 1 mps 733 mmHg 47%
    12:00 +15°C° 0 mm 1 mps 732 mmHg 44%
    13:00 +15°C° 0 mm 1 mps 732 mmHg 43%
    14:00 +16°C° 0 mm 1 mps 732 mmHg 43%
    15:00 +16°C° 0 mm 1 mps 731 mmHg 43%
    16:00 +14°C° 0 mm 1 mps 731 mmHg 50%
    17:00 +12°C° 0 mm 1 mps 731 mmHg 57%
    18:00 +10°C° 0 mm 1 mps 731 mmHg 64%
    19:00 +10°C° 0 mm 1 mps 731 mmHg 65%
    20:00 +9°C° 0 mm 1 mps 731 mmHg 66%
    21:00 +9°C° 0 mm 1 mps 731 mmHg 67%
    22:00 +9°C° 0 mm 1 mps 731 mmHg 67%
    23:00 +7°C° 0 mm 0 mps 731 mmHg 68%
    Show more